sat.trackr.live / text

‹ back to catalog

STARLINK-36822

NORAD 67909 · 2026-036F

PAYLOAD ACTIVE UNKNOWN

§ Identity

Operator
Country
US
Launch date
2026-02-22
Launch site
AFETR
Launch vehicle
Mass (kg)
RCS (m²)

Purposes: comms

External: N2YO · Heavens-Above · Gunter

§ Orbital elements

Epoch: 2026-05-25T02:00:35.769312Z

Period
94.27 min
Inclination
43.0008°
Eccentricity
0.0001519
Mean motion
15.27585953 rev/d
Perigee alt
482.0 km
Apogee alt
484.1 km
Semi-major
6,861.2 km
B*
4.8470e-4
RAAN
174.0036°
Arg perigee
276.4880°
Mean anomaly
83.5798°
Rev number
1,540

§ Raw data

STARLINK-368221 67909U 26036F   26145.08374733  .00013102  00000+0  48470-3 0  99932 67909  43.0008 174.0036 0001519 276.4880  83.5798 15.27585953 15400

JSON: /api/v1/satellites/67909 · /tle

For live sub-satellite position, see the globe view (requires WebGL).

§ Visibility from observer

Set your observer location to see the next 7 days of passes ≥ 10°. The values pass through the URL so the page stays shareable.

No JS? Fill the form by hand. The geolocation button needs JavaScript.